Home   Weather   Tianjin   Past weeks

Flag for China Past Weather in Tianjin, Tianjin Municipality, China — Yesterday and Last 2 Weeks

Now
30 °F

Haze.


Feels Like: 30 °F
Forecast: 18 / 36 °F
Wind: 1 mph from North

Location: Tianjin / Zhangguizhu

Current Time: Jan 17, 2017 at 5:21:28 pm

Latest Report: Jan 17, 2017 at 5:00 pm


Visibility: 1 mi

Pressure: 30.39 "Hg

Humidity: 75%

Dew Point: 23 °F

Location of TianjinLocation

Past Weather in Tianjin — Graph

°F

Tianjin Temperature Yesterday

Maximum temperature yesterday: 32 °F (at 11:00 am)
Minimum temperature yesterday: 21 °F (at 2:00 am)
Average temperature yesterday: 28 °F

High & Low Weather Summary for the Past Weeks

 TemperatureHumidityPressure
High45 °F (Jan 6, 3:00 pm)100% (Jan 3, 3:00 am)30.63 "Hg (Jan 3, 3:00 am)
Low18 °F (Jan 14, 4:00 am)14% (Jan 13, 2:00 pm)30.07 "Hg (Jan 12, 4:00 pm)
Average32 °F65%30.33 "Hg
* Reported Jan 2 4:00 pm — Jan 17 4:00 pm, Tianjin, Weather by CustomWeather, © 2017

Note: Actual official high and low records may vary slightly from our data, if they occured in-between our weather recording intervals... More about our weather records

Advertising

Tianjin Weather History for the Previous 24 Hours

Scroll right to see more
 ConditionsComfort  
Time TempWeatherWind HumidityBarometerVisibility
4:00 pm
Tue, Jan 17
34 °FHaze.1 mph65%30.39 "Hg1 mi
3:30 pm34 °FHaze.6 mph70%30.39 "Hg1 mi
3:00 pm34 °FHaze.3 mph70%30.39 "Hg1 mi
2:30 pm34 °FHaze.6 mph65%30.39 "Hg1 mi
2:00 pm34 °FHaze.8 mph70%30.39 "Hg1 mi
1:30 pm34 °FHaze.8 mph70%30.39 "Hg1 mi
1:00 pm34 °FHaze.6 mph70%30.39 "Hg1 mi
12:30 pm34 °FHaze.8 mph70%30.39 "Hg1 mi
12:00 pm32 °FIce fog.6 mph75%30.42 "Hg2 mi
11:30 am32 °FIce fog.3 mph80%30.42 "Hg2 mi
11:00 am32 °FIce fog.1 mph80%30.45 "Hg2 mi
10:30 am32 °FIce fog.3 mph75%30.45 "Hg2 mi
10:00 am32 °FIce fog.No wind80%30.45 "Hg2 mi
9:30 am32 °FIce fog.1 mph80%30.42 "Hg2 mi
9:00 am30 °FIce fog.3 mph86%30.42 "Hg2 mi
8:30 am30 °FIce fog.1 mph86%30.42 "Hg2 mi
8:00 am30 °FIce fog.1 mph86%30.42 "Hg2 mi
7:30 am30 °FIce fog.3 mph86%30.42 "Hg2 mi
7:00 am30 °FIce fog.3 mph86%30.42 "Hg2 mi
6:30 am30 °FIce fog.3 mph86%30.42 "Hg2 mi
6:00 am30 °FIce fog.6 mph80%30.42 "Hg2 mi
5:30 am30 °FIce fog.3 mph80%30.42 "Hg2 mi
5:00 am28 °FIce fog.1 mph86%30.42 "Hg2 mi
4:30 am28 °FIce fog.1 mph86%30.42 "Hg2 mi
4:00 am28 °FIce fog.3 mph86%30.42 "Hg2 mi
3:30 am30 °FIce fog.6 mph80%30.45 "Hg2 mi
3:00 am28 °FIce fog.3 mph86%30.45 "Hg2 mi
2:30 am28 °FIce fog.3 mph86%30.45 "Hg2 mi
2:00 am28 °FIce fog.3 mph86%30.45 "Hg3 mi
1:30 am28 °FIce fog.3 mph86%30.45 "Hg3 mi
1:00 am28 °FIce fog.3 mph86%30.48 "Hg3 mi
12:30 am30 °FIce fog.3 mph80%30.48 "Hg3 mi
12:00 am28 °FIce fog.3 mph86%30.48 "Hg3 mi
11:30 pm
Mon, Jan 16
30 °FIce fog.1 mph80%30.48 "Hg3 mi
11:00 pm30 °FIce fog.1 mph80%30.48 "Hg3 mi
10:30 pm30 °FIce fog.3 mph80%30.48 "Hg3 mi
10:00 pm30 °FIce fog.6 mph80%30.48 "Hg3 mi
9:30 pm30 °FIce fog.6 mph80%30.48 "Hg3 mi
9:00 pm30 °FIce fog.6 mph80%30.48 "Hg3 mi
8:30 pm30 °FIce fog.6 mph80%30.48 "Hg3 mi
8:00 pm30 °FIce fog.6 mph80%30.48 "Hg3 mi
7:30 pm30 °FIce fog.6 mph80%30.48 "Hg3 mi
7:00 pm30 °FIce fog.3 mph80%30.48 "Hg3 mi
6:30 pm30 °FIce fog.1 mph80%30.48 "Hg3 mi
6:00 pm30 °FIce fog.3 mph80%30.48 "Hg3 mi
5:30 pm30 °FIce fog.6 mph80%30.45 "Hg3 mi
5:00 pm30 °FIce fog.6 mph80%30.45 "Hg3 mi
Weather by CustomWeather, © 2017

See weather overviewHow to use our weather pages